[[{"header":{"parameterUnit":"m.s-1","parameterCategory":2,"la1":30.2991,"la2":30.254,"lo1":-89.0895,"lo2":-89.0444,"dy":0.0017,"dx":0.0017,"nx":28,"ny":28,"refTime":"2024-11-30T09:00:00:Z","depth":"0","parameterNumber":2,"parameterNumberName":"U-component_of_CURRENTS"},"data":[0,0,0,0,0,0,0,0,0,0,0,0,0,0,0,0,0,0,0,0,0,0,0,0,0,0,0,0,0,0,0,0,0,0,0,0,0,0,0,0,0,0,0,0,0,0,0,0,0,0,0,0,0,0,0,0,0,0,0.239,0.2391,0,0.2435,0.2435,0.2435,0.2442,0.2442,0.2442,0.2442,0.2442,0.2442,0.2442,0,0,0,0,0,0,0,0,0,0,0,0,0,0.2307,0.2308,0.239,0.2391,0.2391,0.2435,0.2435,0.2435,0.2442,0.2442,0.2442,0.2442,0.2442,0.2442,0.2442,0,0,0,0,0,0,0,0,0,0,0,0,0,0.2344,0.2309,0.239,0.2402,0.2404,0.2435,0.2435,0.2435,0.2442,0.2442,0.2442,0.2442,0.2442,0.2442,0.2442,0.2447,0,0,0.2443,0.2443,0,0,0,0,0,0,0,0,0.2341,0.2346,0.24,0.2402,0.2404,0.2436,0.2406,0.2438,0.2442,0.2425,0.2442,0.2442,0.2438,0.2438,0.2443,0.2447,0.2447,0.2443,0.2443,0.2443,0.2443,0,0,0,0,0,0,0,0.2339,0.2344,0.2404,0.2401,0.2403,0.2405,0.241,0.2412,0.2428,0.2426,0.2428,0.2438,0.2438,0.2443,0.2443,0.2447,0.2443,0.2443,0.2443,0.2443,0.2475,0.2475,0,0,0,0,0,0,0.234,0.2342,0.2403,0.2406,0.2375,0.2407,0.2412,0.2423,0.2429,0.2431,0.2438,0.2438,0.2443,0.2443,0.2443,0.2476,0.2443,0.2443,0.2443,0.2474,0.2475,0.2476,0,0,0,0,0,0,0.2338,0.2345,0.2401,0.2377,0.2385,0.2409,0.2421,0.2424,0.2432,0.2439,0.244,0.2444,0.2443,0.2443,0.2454,0.2475,0.2443,0.2443,0.2473,0.2474,0.2475,0.2523,0,0,0,0,0,0,0.2336,0.2344,0.2348,0.2378,0.2387,0.2421,0.2422,0.2425,0.244,0.2441,0.2444,0.2444,0.2443,0.2454,0.2454,0.2474,0.2443,0.2472,0.2474,0.2475,0.2521,0.2526,0.253,0,0,0,0,0,0.2333,0.2337,0.2348,0.2355,0.2393,0.2422,0.2426,0.2441,0.2441,0.2446,0.2453,0.2444,0.2463,0.2455,0.2455,0.2475,0.2471,0.2473,0.2475,0.2518,0.2525,0.253,0,0,0,0,0,0,0.2296,0.2339,0.2352,0.2367,0.2396,0.2424,0.243,0.2443,0.2453,0.2451,0.2453,0.2454,0.2474,0.2465,0.2456,0.2488,0.2466,0.2468,0.2499,0.2505,0.251,0.2531,0.2443,0,0,0,0,0,0.2293,0.2309,0.2351,0.2362,0.2377,0.2404,0.2417,0.2431,0.2448,0.2453,0.2458,0.2464,0.2481,0.2484,0.2491,0.2506,0.2519,0.2519,0.2523,0.2527,0.2545,0.2575,0.2585,0.2481,0.2481,0.2481,0,0,0.2278,0.2307,0.2314,0.2356,0.2376,0.241,0.241,0.2433,0.2463,0.245,0.2478,0.2481,0.2488,0.2511,0.2519,0.2506,0.2565,0.253,0.2533,0.2549,0.2578,0.2589,0.2598,0.2482,0.2482,0.2482,0,0,0.227,0.2288,0.2306,0.2337,0.2379,0.2404,0.2413,0.2448,0.2463,0.2492,0.2497,0.2516,0.2526,0.2548,0.2558,0.2592,0.2591,0.2585,0.2627,0.2656,0.2665,0.2673,0.2712,0.2723,0.2585,0.2586,0.2586,0,0.225,0.229,0.2313,0.2348,0.2379,0.2405,0.2441,0.2465,0.2498,0.2521,0.2504,0.2551,0.2552,0.2603,0.2617,0.2606,0.2622,0.2605,0.2664,0.2672,0.2679,0.2717,0.2729,0.2588,0.2588,0.2588,0.2587,0,0.227,0.2304,0.2316,0.2377,0.2408,0.2439,0.2488,0.2515,0.2534,0.2562,0.2606,0.2612,0.2643,0.2644,0.2644,0.2701,0.2695,0.2668,0.2652,0.2693,0.273,0.2741,0.2592,0.2591,0.259,0.2589,0,0,0.2224,0.2314,0.232,0.236,0.243,0.2459,0.2515,0.2578,0.2622,0.2642,0.2696,0.2725,0.2727,0.274,0.2739,0.2763,0.2831,0.2741,0.2742,0.2786,0.2907,0.2976,0.2995,0.281,0.2812,0.2814,0.2914,0,0.2236,0.2308,0.2353,0.2421,0.2462,0.2516,0.2569,0.2626,0.2668,0.2721,0.2744,0.2787,0.2765,0.2781,0.2806,0.2825,0.2862,0.2807,0.2856,0.2858,0.2919,0.3012,0.2908,0.2995,0.2925,0.2927,0.2929,0,0.2248,0.23,0.2367,0.2462,0.2484,0.2525,0.2621,0.2675,0.2759,0.279,0.2838,0.2856,0.2915,0.2874,0.2945,0.2909,0.2923,0.2929,0.2932,0.2992,0.295,0.294,0.3019,0.2939,0.2946,0.2945,0.2944,0,0.2215,0.231,0.2366,0.2398,0.2503,0.2541,0.2598,0.2689,0.2733,0.2837,0.2872,0.294,0.2974,0.3001,0.3033,0.2989,0.3107,0.3042,0.3123,0.3127,0.305,0.3045,0.3064,0.3103,0.3103,0.3103,0.3103,0,0.2218,0.2261,0.2353,0.2384,0.2444,0.2528,0.2593,0.2667,0.2756,0.2837,0.2897,0.2971,0.3005,0.3074,0.3079,0.3168,0.3151,0.3172,0.3174,0.3066,0.3062,0.2996,0.2965,0.3107,0.3106,0.3105,0.3104,0,0.2173,0.2239,0.2299,0.2401,0.2428,0.247,0.2563,0.2621,0.2717,0.2825,0.286,0.2993,0.3125,0.3169,0.3244,0.3245,0.3233,0.3332,0.3221,0.3211,0.3213,0.3189,0.3147,0.3039,0.344,0.3443,0.3445,0,0.2159,0.2186,0.2279,0.2306,0.2348,0.2414,0.2467,0.2579,0.2657,0.2856,0.2918,0.3078,0.3198,0.3349,0.3417,0.3488,0.3337,0.3415,0.3324,0.3249,0.3221,0.3078,0.2976,0.3227,0.3228,0.3228,0.3228,0,0.2119,0.2147,0.2194,0.225,0.2301,0.2353,0.2451,0.2486,0.2668,0.2762,0.2939,0.3045,0.3288,0.3352,0.3486,0.3506,0.3274,0.3426,0.3351,0.3094,0.2932,0.2815,0.3132,0.323,0.3229,0.3229,0.3229,0.3229,0.2069,0.2083,0.214,0.2183,0.2242,0.2287,0.2294,0.2419,0.2509,0.2655,0.2859,0.2982,0.32,0.3401,0.3415,0.3414,0.3361,0.3289,0.3278,0.3148,0.3012,0.3376,0.348,0.3481,0.3482,0.3483,0.3484,0,0.2,0.203,0.2072,0.2114,0.2137,0.2199,0.2281,0.2283,0.2355,0.2549,0.2675,0.2883,0.3007,0.3163,0.3323,0.3245,0.3041,0.3149,0.2867,0.2779,0.3107,0.3065,0.308,0.308,0.308,0.3081,0.3081,0.3081,0.1965,0.1974,0.1998,0.1998,0.2026,0.2015,0.203,0.2063,0.2165,0.2279,0.2398,0.2546,0.2909,0.3185,0.3187,0.3098,0.2817,0.2748,0.2702,0.2899,0.2907,0.2914,0.2865,0.2839,0.2838,0.2207,0.2203,0.22]},{"header":{"parameterUnit":"m.s-1","parameterCategory":2,"la1":30.2991,"la2":30.254,"lo1":-89.0895,"lo2":-89.0444,"dy":0.0017,"dx":0.0017,"nx":28,"ny":28,"refTime":"2024-11-30T09:00:00:Z","depth":"0","parameterNumber":3,"parameterNumberName":"V-component_of_CURRENTS"},"data":[0,0,0,0,0,0,0,0,0,0,0,0,0,0,0,0,0,0,0,0,0,0,0,0,0,0,0,0,0,0,0,0,0,0,0,0,0,0,0,0,0,0,0,0,0,0,0,0,0,0,0,0,0,0,0,0,0,0,-0.0445,-0.0445,0,-0.0517,-0.0518,-0.0519,-0.0571,-0.0572,-0.0572,-0.0572,-0.066,-0.0662,-0.0664,0,0,0,0,0,0,0,0,0,0,0,0,0,-0.0412,-0.0412,-0.0444,-0.0445,-0.0446,-0.0517,-0.0518,-0.0519,-0.0571,-0.0572,-0.0572,-0.0573,-0.0659,-0.0662,-0.0664,0,0,0,0,0,0,0,0,0,0,0,0,0,-0.0451,-0.0412,-0.0444,-0.048,-0.0484,-0.0517,-0.0518,-0.052,-0.0571,-0.0572,-0.0572,-0.0573,-0.0658,-0.0661,-0.0664,-0.0674,0,0,-0.0674,-0.0675,0,0,0,0,0,0,0,0,-0.0448,-0.0452,-0.0474,-0.0477,-0.0482,-0.0535,-0.0539,-0.0571,-0.0571,-0.0539,-0.0572,-0.0573,-0.0618,-0.0624,-0.0639,-0.0678,-0.0681,-0.0674,-0.0676,-0.0677,-0.0678,0,0,0,0,0,0,0,-0.0446,-0.0449,-0.0475,-0.0474,-0.0479,-0.0513,-0.0518,-0.0546,-0.0576,-0.0542,-0.0546,-0.0552,-0.0621,-0.0636,-0.0641,-0.0683,-0.0674,-0.0677,-0.0678,-0.068,-0.0737,-0.0737,0,0,0,0,0,0,-0.043,-0.0446,-0.0472,-0.0477,-0.0464,-0.0513,-0.0519,-0.0518,-0.0576,-0.0585,-0.0551,-0.0554,-0.063,-0.0638,-0.0644,-0.0663,-0.0677,-0.068,-0.0682,-0.0738,-0.0737,-0.0737,0,0,0,0,0,0,-0.0429,-0.0431,-0.0469,-0.0463,-0.047,-0.0512,-0.0511,-0.0519,-0.0531,-0.0582,-0.0592,-0.0554,-0.0631,-0.064,-0.0665,-0.0667,-0.0681,-0.0684,-0.0738,-0.0738,-0.0737,-0.0697,0,0,0,0,0,0,-0.0428,-0.043,-0.0424,-0.0461,-0.0469,-0.0477,-0.0511,-0.052,-0.0533,-0.0538,-0.0588,-0.0597,-0.0632,-0.066,-0.0668,-0.0671,-0.0686,-0.0738,-0.0738,-0.0737,-0.0699,-0.0696,-0.0693,0,0,0,0,0,-0.0426,-0.0408,-0.0423,-0.0426,-0.0459,-0.0476,-0.0483,-0.0516,-0.0533,-0.053,-0.0569,-0.0595,-0.0662,-0.0662,-0.0671,-0.0676,-0.0739,-0.0738,-0.0737,-0.07,-0.0696,-0.0693,0,0,0,0,0,0,-0.0385,-0.0413,-0.043,-0.042,-0.0442,-0.0484,-0.0483,-0.0508,-0.0537,-0.054,-0.0592,-0.0603,-0.0626,-0.0651,-0.065,-0.0689,-0.0704,-0.0706,-0.0673,-0.067,-0.0667,-0.0681,-0.0689,0,0,0,0,0,-0.0373,-0.037,-0.0403,-0.0395,-0.0402,-0.0442,-0.0453,-0.0475,-0.0506,-0.0519,-0.0557,-0.0595,-0.0631,-0.0649,-0.068,-0.0699,-0.0742,-0.0707,-0.0704,-0.0701,-0.0719,-0.0798,-0.0804,-0.0735,-0.0735,-0.0735,0,0,-0.0355,-0.037,-0.0368,-0.0387,-0.0407,-0.0416,-0.0449,-0.0457,-0.0473,-0.0523,-0.0549,-0.0583,-0.0632,-0.0658,-0.0671,-0.068,-0.0733,-0.0701,-0.0698,-0.0717,-0.0798,-0.0805,-0.0811,-0.0734,-0.0734,-0.0735,0,0,-0.0319,-0.0329,-0.0318,-0.0334,-0.0358,-0.0386,-0.0383,-0.042,-0.0443,-0.0469,-0.0514,-0.0553,-0.0594,-0.0643,-0.0671,-0.0668,-0.0712,-0.0664,-0.0665,-0.0741,-0.0748,-0.0755,-0.0776,-0.0786,-0.0665,-0.0665,-0.0665,0,-0.0295,-0.0292,-0.0316,-0.0314,-0.0327,-0.0368,-0.0367,-0.0395,-0.0437,-0.0464,-0.0468,-0.0564,-0.0596,-0.066,-0.0657,-0.0664,-0.0696,-0.0675,-0.0739,-0.0747,-0.0755,-0.0776,-0.0787,-0.0663,-0.0663,-0.0663,-0.0663,0,-0.0261,-0.026,-0.0251,-0.027,-0.0284,-0.0285,-0.0329,-0.0348,-0.038,-0.0424,-0.0483,-0.0538,-0.0603,-0.0611,-0.0635,-0.0702,-0.0699,-0.0724,-0.0751,-0.076,-0.078,-0.0792,-0.066,-0.0661,-0.0661,-0.0662,0,0,-0.0206,-0.0225,-0.0223,-0.0228,-0.0263,-0.0269,-0.0296,-0.0342,-0.0367,-0.0423,-0.0471,-0.0542,-0.0585,-0.062,-0.066,-0.0722,-0.0783,-0.0741,-0.0746,-0.0766,-0.0915,-0.0858,-0.0865,-0.0823,-0.0826,-0.0828,-0.0892,0,-0.0174,-0.0161,-0.0186,-0.0182,-0.0182,-0.0231,-0.0253,-0.0302,-0.0351,-0.0403,-0.0492,-0.0542,-0.0586,-0.0607,-0.0687,-0.0761,-0.082,-0.0761,-0.0901,-0.0905,-0.0859,-0.088,-0.079,-0.0837,-0.0904,-0.0906,-0.0908,0,-0.0137,-0.0136,-0.0125,-0.0147,-0.0151,-0.0159,-0.0209,-0.0233,-0.0324,-0.0362,-0.0452,-0.0517,-0.0621,-0.0647,-0.0816,-0.0775,-0.0847,-0.0904,-0.0909,-0.0888,-0.0873,-0.0848,-0.0857,-0.1022,-0.0927,-0.0925,-0.0924,0,-0.0092,-0.0095,-0.0086,-0.0093,-0.0123,-0.0133,-0.0153,-0.0223,-0.0239,-0.0338,-0.0352,-0.051,-0.0554,-0.0705,-0.082,-0.0827,-0.0987,-0.1013,-0.1031,-0.1025,-0.0995,-0.0982,-0.119,-0.1144,-0.1144,-0.1143,-0.1143,0,-0.0053,-0.0044,-0.0062,-0.0054,-0.0045,-0.0085,-0.0091,-0.0132,-0.0187,-0.0177,-0.0324,-0.033,-0.0572,-0.0682,-0.0818,-0.0947,-0.0993,-0.1041,-0.1055,-0.097,-0.0955,-0.1134,-0.1241,-0.1146,-0.1145,-0.1145,-0.1144,0,-0.0004,-0.0017,-0.0001,-0.0018,-0.0019,-0.001,-0.0024,-0.0019,-0.0078,-0.0066,-0.0085,-0.0215,-0.0337,-0.0558,-0.0775,-0.0902,-0.1129,-0.1085,-0.0938,-0.0934,-0.1106,-0.1211,-0.1448,-0.1514,-0.1132,-0.1131,-0.1131,0,0.0021,0.0035,0.0043,0.0066,0.0064,0.0071,0.0091,0.0041,0.0069,0.0046,0.0081,-0.0045,-0.0062,-0.0373,-0.0638,-0.0882,-0.1076,-0.0978,-0.0995,-0.1116,-0.1246,-0.1334,-0.138,-0.0922,-0.0919,-0.0917,-0.0916,0,0.0072,0.0077,0.0097,0.0153,0.0185,0.0216,0.0252,0.0293,0.0282,0.0325,0.0398,0.0384,0.0112,-0.0083,-0.0453,-0.0644,-0.1077,-0.0944,-0.114,-0.1161,-0.1209,-0.1273,-0.0848,-0.0899,-0.0901,-0.0902,-0.0903,-0.0903,0.0121,0.0153,0.0195,0.0253,0.0303,0.0391,0.0458,0.0533,0.0634,0.0754,0.0702,0.0761,0.0406,-0.0065,-0.0362,-0.0877,-0.0939,-0.1017,-0.1148,-0.1236,-0.128,-0.0786,-0.0812,-0.0813,-0.0814,-0.0815,-0.0815,0,0.0197,0.0238,0.0295,0.0382,0.048,0.0472,0.0596,0.07,0.0899,0.1006,0.1106,0.0996,0.0582,0.0058,-0.0617,-0.0992,-0.1173,-0.1244,-0.138,-0.1428,-0.1038,-0.1006,-0.0992,-0.0992,-0.0991,-0.0991,-0.0991,-0.0991,0.024,0.0324,0.0359,0.0535,0.0606,0.0758,0.0853,0.1022,0.1139,0.133,0.1387,0.1383,0.0991,-0.0232,-0.1087,-0.131,-0.1633,-0.1673,-0.1876,-0.1629,-0.1619,-0.1609,-0.1606,-0.1718,-0.1719,-0.2172,-0.2177,-0.2181]}],[{"header":{"parameterUnit":"m.s-1","parameterCategory":2,"la1":30.2991,"la2":30.254,"lo1":-89.0895,"lo2":-89.0444,"dy":0.0017,"dx":0.0017,"nx":28,"ny":28,"refTime":"2024-11-30T09:00:00:Z","depth":"2","parameterNumber":2,"parameterNumberName":"U-component_of_CURRENTS"},"data":[0,0,0,0,0,0,0,0,0,0,0,0,0,0,0,0,0,0,0,0,0,0,0,0,0,0,0,0,0,0,0,0,0,0,0,0,0,0,0,0,0,0,0,0,0,0,0,0,0,0,0,0,0,0,0,0,0,0,0.2196,0.2197,0,0.2232,0.2232,0.2233,0.2248,0.2249,0.2249,0.2249,0.2273,0.2273,0.2274,0,0,0,0,0,0,0,0,0,0,0,0,0,0.2125,0.2126,0.2196,0.2197,0.2197,0.2232,0.2232,0.2233,0.2248,0.2249,0.2249,0.2249,0.2273,0.2273,0.2274,0,0,0,0,0,0,0,0,0,0,0,0,0,0.2155,0.2126,0.2196,0.2211,0.2213,0.2232,0.2232,0.2233,0.2248,0.2249,0.2249,0.2249,0.2272,0.2273,0.2274,0.2273,0,0,0.2276,0.2276,0,0,0,0,0,0,0,0,0.2153,0.2157,0.2208,0.221,0.2213,0.2238,0.2216,0.2246,0.2248,0.2232,0.2249,0.2249,0.2262,0.2263,0.2266,0.2274,0.2275,0.2276,0.2276,0.2277,0.2277,0,0,0,0,0,0,0,0.2151,0.2156,0.2208,0.2209,0.2212,0.2211,0.2216,0.2222,0.2243,0.2234,0.2236,0.2244,0.2262,0.2265,0.2267,0.2275,0.2276,0.2277,0.2277,0.2277,0.2328,0.2329,0,0,0,0,0,0,0.2153,0.2154,0.2207,0.2209,0.2186,0.2212,0.2217,0.2228,0.2243,0.2247,0.2243,0.2244,0.2264,0.2266,0.2268,0.2321,0.2277,0.2277,0.2278,0.2327,0.2328,0.2329,0,0,0,0,0,0,0.2151,0.2157,0.2205,0.2184,0.2191,0.2214,0.2225,0.2228,0.2243,0.2251,0.2254,0.2257,0.2264,0.2267,0.2286,0.232,0.2278,0.2278,0.2326,0.2327,0.2329,0.2393,0,0,0,0,0,0,0.2149,0.2156,0.2163,0.2184,0.2192,0.2225,0.2225,0.2229,0.2248,0.225,0.2263,0.2265,0.2265,0.2285,0.2287,0.232,0.2279,0.2325,0.2326,0.2328,0.239,0.2397,0.2403,0,0,0,0,0,0.2146,0.2152,0.2163,0.217,0.2201,0.2225,0.2229,0.2244,0.2249,0.2258,0.2269,0.2265,0.2297,0.2286,0.2288,0.2323,0.2324,0.2326,0.2328,0.2387,0.2396,0.2402,0,0,0,0,0,0,0.2119,0.2155,0.2168,0.2183,0.2208,0.2229,0.2237,0.2251,0.2266,0.2269,0.2274,0.2277,0.2307,0.2301,0.2288,0.2341,0.2311,0.2314,0.2356,0.2363,0.237,0.2404,0.2279,0,0,0,0,0,0.2118,0.2136,0.2169,0.2182,0.2195,0.2219,0.223,0.2245,0.2263,0.227,0.2281,0.2294,0.2315,0.2327,0.2336,0.2362,0.2383,0.2385,0.2392,0.2397,0.2426,0.2483,0.2498,0.2336,0.2336,0.2336,0,0,0.211,0.2134,0.2142,0.2178,0.2196,0.2229,0.2226,0.2249,0.2286,0.227,0.231,0.2313,0.2325,0.2359,0.2372,0.236,0.2451,0.24,0.2405,0.2431,0.2487,0.2503,0.2517,0.2337,0.2337,0.2337,0,0,0.211,0.2126,0.2147,0.2173,0.2211,0.2232,0.2243,0.2274,0.2296,0.2329,0.2336,0.2366,0.2379,0.2412,0.2427,0.2473,0.2479,0.2465,0.2533,0.2587,0.2602,0.2615,0.2651,0.2667,0.2473,0.2473,0.2473,0,0.2098,0.2136,0.2154,0.2188,0.2217,0.2239,0.2276,0.2304,0.2338,0.2372,0.2348,0.2413,0.2416,0.2492,0.2509,0.2493,0.2514,0.2504,0.2599,0.2612,0.2624,0.2658,0.2675,0.2476,0.2476,0.2475,0.2475,0,0.2122,0.2157,0.2169,0.2227,0.2259,0.2288,0.2338,0.2375,0.2398,0.243,0.2495,0.2501,0.2549,0.2549,0.2546,0.264,0.2623,0.2597,0.2585,0.2645,0.2676,0.2692,0.2481,0.248,0.2479,0.2478,0,0,0.2086,0.2171,0.2177,0.222,0.2284,0.2315,0.2386,0.2461,0.2527,0.2548,0.263,0.2664,0.2672,0.2691,0.2691,0.274,0.2835,0.2713,0.2714,0.2758,0.2952,0.2896,0.2908,0.2826,0.283,0.2832,0.2935,0,0.2102,0.2175,0.2215,0.229,0.2334,0.239,0.2457,0.253,0.2588,0.2667,0.2701,0.2763,0.2725,0.2755,0.2801,0.2827,0.2883,0.281,0.2879,0.2881,0.2833,0.2928,0.2701,0.277,0.2951,0.2953,0.2955,0,0.2116,0.2169,0.2242,0.2347,0.237,0.2418,0.2545,0.2608,0.2728,0.2774,0.2848,0.2875,0.2961,0.2907,0.3006,0.2959,0.2976,0.2985,0.2989,0.2934,0.2858,0.274,0.2793,0.2982,0.298,0.2978,0.2976,0,0.2092,0.219,0.2252,0.2284,0.2398,0.245,0.2515,0.2639,0.2703,0.2851,0.2901,0.3005,0.3047,0.3097,0.3117,0.3075,0.3214,0.3152,0.3122,0.3116,0.2938,0.2912,0.3245,0.3245,0.3245,0.3244,0.3244,0,0.2095,0.2145,0.2247,0.2278,0.2357,0.2446,0.2541,0.2634,0.2761,0.2848,0.2943,0.3027,0.3098,0.3172,0.3181,0.3211,0.3269,0.3172,0.3158,0.295,0.2925,0.3115,0.3098,0.3248,0.3247,0.3246,0.3246,0,0.2057,0.2124,0.2193,0.2309,0.2343,0.2399,0.2518,0.2591,0.2722,0.2842,0.2888,0.3056,0.3168,0.3225,0.3325,0.328,0.3324,0.3319,0.3067,0.3023,0.3169,0.3155,0.33,0.3299,0.3299,0.3298,0.3298,0,0.2046,0.2076,0.2182,0.2217,0.2264,0.2352,0.2408,0.2549,0.2628,0.2854,0.2904,0.3075,0.3142,0.3264,0.3291,0.332,0.3358,0.3108,0.2992,0.3213,0.3185,0.3171,0.3157,0.2772,0.2767,0.2764,0.276,0,0.201,0.2041,0.2093,0.2157,0.2212,0.2277,0.2375,0.2418,0.26,0.2677,0.2811,0.2885,0.3064,0.3018,0.3102,0.3086,0.3083,0.3031,0.3357,0.2792,0.2723,0.2692,0.2695,0.2726,0.273,0.2732,0.2734,0.2736,0.1964,0.1983,0.2038,0.2093,0.2151,0.2192,0.2197,0.2294,0.2354,0.2472,0.2635,0.2671,0.2786,0.2791,0.2754,0.2758,0.2944,0.2802,0.281,0.2824,0.2744,0.2677,0.2656,0.2659,0.2662,0.2664,0.2666,0,0.1899,0.1933,0.1976,0.2021,0.2028,0.2103,0.2164,0.2144,0.2144,0.229,0.2348,0.2238,0.2249,0.2373,0.2326,0.2347,0.2288,0.2258,0.2153,0.2192,0.2225,0.2109,0.1856,0.1853,0.185,0.1847,0,0,0.1869,0.1872,0.1895,0.188,0.1916,0.1893,0.1898,0.1873,0.1931,0.1911,0.1933,0.214,0.2278,0.2016,0.2025,0.1924,0.2026,0.1858,0.2518,0.2432,0.246,0.2566,0.2436,0,0,0,0,0]},{"header":{"parameterUnit":"m.s-1","parameterCategory":2,"la1":30.2991,"la2":30.254,"lo1":-89.0895,"lo2":-89.0444,"dy":0.0017,"dx":0.0017,"nx":28,"ny":28,"refTime":"2024-11-30T09:00:00:Z","depth":"2","parameterNumber":3,"parameterNumberName":"V-component_of_CURRENTS"},"data":[0,0,0,0,0,0,0,0,0,0,0,0,0,0,0,0,0,0,0,0,0,0,0,0,0,0,0,0,0,0,0,0,0,0,0,0,0,0,0,0,0,0,0,0,0,0,0,0,0,0,0,0,0,0,0,0,0,0,-0.0101,-0.0101,0,-0.0161,-0.0162,-0.0162,-0.021,-0.021,-0.0211,-0.0211,-0.0311,-0.0313,-0.0315,0,0,0,0,0,0,0,0,0,0,0,0,0,-0.0071,-0.0071,-0.0101,-0.0101,-0.0102,-0.0161,-0.0162,-0.0163,-0.021,-0.021,-0.0211,-0.0211,-0.031,-0.0313,-0.0315,0,0,0,0,0,0,0,0,0,0,0,0,0,-0.0103,-0.0071,-0.0101,-0.0132,-0.0136,-0.0161,-0.0162,-0.0163,-0.021,-0.021,-0.0211,-0.0211,-0.0309,-0.0312,-0.0316,-0.0325,0,0,-0.0326,-0.0328,0,0,0,0,0,0,0,0,-0.0101,-0.0105,-0.0127,-0.013,-0.0134,-0.0178,-0.0188,-0.0219,-0.021,-0.0182,-0.0211,-0.0212,-0.0269,-0.0276,-0.0286,-0.033,-0.0334,-0.0326,-0.0329,-0.033,-0.0331,0,0,0,0,0,0,0,-0.0099,-0.0103,-0.0125,-0.0128,-0.0132,-0.0159,-0.0163,-0.0194,-0.0223,-0.0185,-0.0188,-0.0193,-0.0271,-0.0283,-0.0289,-0.0335,-0.0326,-0.0329,-0.0332,-0.0333,-0.0406,-0.0406,0,0,0,0,0,0,-0.0087,-0.01,-0.0123,-0.0127,-0.0118,-0.0158,-0.0164,-0.0164,-0.0222,-0.0231,-0.0193,-0.0195,-0.0277,-0.0285,-0.0293,-0.0319,-0.033,-0.0333,-0.0335,-0.0406,-0.0406,-0.0406,0,0,0,0,0,0,-0.0086,-0.0088,-0.0121,-0.0115,-0.0121,-0.0158,-0.0158,-0.0165,-0.018,-0.0227,-0.0237,-0.0202,-0.0277,-0.0288,-0.0319,-0.0322,-0.0335,-0.0338,-0.0406,-0.0406,-0.0406,-0.0363,0,0,0,0,0,0,-0.0085,-0.0088,-0.0085,-0.0114,-0.0121,-0.0132,-0.0157,-0.0165,-0.0182,-0.0186,-0.0238,-0.0248,-0.0279,-0.0313,-0.0322,-0.0327,-0.0341,-0.0406,-0.0406,-0.0406,-0.0365,-0.0361,-0.0359,0,0,0,0,0,-0.0084,-0.0073,-0.0085,-0.0088,-0.0115,-0.0131,-0.0137,-0.0167,-0.0182,-0.0184,-0.0219,-0.0246,-0.0318,-0.0316,-0.0326,-0.0333,-0.0406,-0.0406,-0.0406,-0.0366,-0.0362,-0.0359,0,0,0,0,0,0,-0.0058,-0.0078,-0.0091,-0.0087,-0.0107,-0.0139,-0.0143,-0.0164,-0.0193,-0.0198,-0.0245,-0.0257,-0.0285,-0.0312,-0.0308,-0.0352,-0.0367,-0.0369,-0.0333,-0.033,-0.0327,-0.0324,-0.0343,0,0,0,0,0,-0.005,-0.0049,-0.0074,-0.0072,-0.0078,-0.0111,-0.0122,-0.0141,-0.017,-0.0183,-0.0219,-0.0258,-0.0291,-0.0312,-0.0342,-0.0367,-0.0405,-0.0378,-0.0375,-0.0372,-0.0377,-0.0454,-0.0459,-0.0405,-0.0405,-0.0405,0,0,-0.0041,-0.0051,-0.0052,-0.0067,-0.0084,-0.0085,-0.0119,-0.013,-0.0138,-0.0189,-0.0211,-0.0247,-0.0293,-0.032,-0.0335,-0.0345,-0.04,-0.0372,-0.0369,-0.0375,-0.0455,-0.046,-0.0465,-0.0405,-0.0405,-0.0405,0,0,-0.0017,-0.0028,-0.0019,-0.0029,-0.0049,-0.0067,-0.0068,-0.0099,-0.012,-0.0143,-0.0183,-0.022,-0.0267,-0.0304,-0.0329,-0.0328,-0.0379,-0.0338,-0.0327,-0.0402,-0.0408,-0.0413,-0.0436,-0.0444,-0.034,-0.034,-0.034,0,-0.0006,0.0007,-0.0019,-0.0012,-0.0014,-0.0054,-0.0042,-0.007,-0.0109,-0.0128,-0.0143,-0.022,-0.026,-0.0302,-0.0307,-0.0322,-0.0361,-0.0336,-0.0399,-0.0406,-0.0412,-0.0435,-0.0444,-0.0338,-0.0338,-0.0338,-0.0338,0,0.0027,0.0036,0.0043,0.0041,0.0031,0.0037,0.0002,-0.0017,-0.0047,-0.008,-0.0126,-0.0181,-0.0233,-0.0249,-0.0283,-0.0343,-0.0352,-0.0384,-0.0409,-0.0415,-0.0438,-0.0448,-0.0335,-0.0335,-0.0336,-0.0337,0,0,0.0063,0.0067,0.0069,0.0081,0.0064,0.0063,0.0045,0.0019,0.0004,-0.0048,-0.0074,-0.0144,-0.0188,-0.0219,-0.0267,-0.0334,-0.0404,-0.0381,-0.0386,-0.0403,-0.0544,-0.0459,-0.0462,-0.0461,-0.0464,-0.0465,-0.0529,0,0.01,0.0133,0.012,0.0148,0.0165,0.0127,0.0117,0.008,0.0037,-0.0002,-0.0077,-0.0118,-0.0173,-0.0199,-0.0279,-0.0372,-0.0436,-0.0382,-0.0536,-0.0539,-0.0465,-0.0474,-0.0459,-0.0508,-0.054,-0.0541,-0.0543,0,0.014,0.016,0.0196,0.0209,0.0212,0.0214,0.0191,0.0174,0.0101,0.0066,-0.0002,-0.0066,-0.0157,-0.0208,-0.0378,-0.0346,-0.0448,-0.0519,-0.0525,-0.0472,-0.0475,-0.0514,-0.0526,-0.0561,-0.0559,-0.0558,-0.0557,0,0.0188,0.0214,0.0249,0.0254,0.0256,0.0255,0.0245,0.019,0.0187,0.01,0.0095,-0.0037,-0.0087,-0.0243,-0.0376,-0.0403,-0.0548,-0.0604,-0.0615,-0.0608,-0.0638,-0.0629,-0.0742,-0.0742,-0.0742,-0.0741,-0.0741,0,0.0242,0.0268,0.0273,0.0295,0.0332,0.0301,0.0315,0.0284,0.0247,0.0266,0.013,0.014,-0.0109,-0.0207,-0.0358,-0.0484,-0.0537,-0.061,-0.0629,-0.0615,-0.0604,-0.0692,-0.0685,-0.0744,-0.0743,-0.0743,-0.0742,0,0.0289,0.0293,0.0338,0.0351,0.0358,0.0378,0.0388,0.0401,0.0351,0.0373,0.0357,0.0247,0.0128,-0.0073,-0.0305,-0.0429,-0.0574,-0.0608,-0.0536,-0.0545,-0.0596,-0.0586,-0.0659,-0.0657,-0.0655,-0.0654,-0.0652,0,0.0317,0.0346,0.0387,0.0416,0.0425,0.0447,0.0476,0.0455,0.0496,0.048,0.0528,0.0406,0.0378,0.0104,-0.0169,-0.0408,-0.0474,-0.0535,-0.0593,-0.0581,-0.0593,-0.0586,-0.0579,-0.0614,-0.0612,-0.0611,-0.061,0,0.0376,0.0387,0.0425,0.0491,0.0535,0.0586,0.0637,0.0694,0.0696,0.0729,0.0794,0.0763,0.0504,0.0265,-0.0067,-0.0235,-0.05,-0.0512,-0.056,-0.0607,-0.0536,-0.0547,-0.0544,-0.0599,-0.06,-0.0601,-0.0601,-0.0602,0.0416,0.0455,0.0508,0.0571,0.0632,0.0727,0.0788,0.0864,0.0958,0.1017,0.1003,0.0961,0.0666,0.025,-0.0035,-0.037,-0.0379,-0.0515,-0.0522,-0.0529,-0.0483,-0.0409,-0.0438,-0.0438,-0.0438,-0.0438,-0.0438,0,0.0472,0.0512,0.058,0.0669,0.0757,0.0772,0.0904,0.0968,0.1104,0.1156,0.1188,0.0942,0.0677,0.0344,-0.0134,-0.0398,-0.0482,-0.0484,-0.0547,-0.0555,-0.0562,-0.0521,-0.0485,-0.0486,-0.0487,-0.0488,0,0,0.0502,0.058,0.0618,0.0766,0.0827,0.0958,0.1039,0.113,0.1196,0.1254,0.1232,0.1156,0.0781,0.0434,0.0053,-0.0217,-0.0331,-0.0276,-0.0209,-0.0245,-0.025,-0.0546,-0.0485,0,0,0,0,0]}],[{"header":{"parameterUnit":"m.s-1","parameterCategory":2,"la1":30.2991,"la2":30.254,"lo1":-89.0895,"lo2":-89.0444,"dy":0.0017,"dx":0.0017,"nx":28,"ny":28,"refTime":"2024-11-30T09:00:00:Z","depth":"4","parameterNumber":2,"parameterNumberName":"U-component_of_CURRENTS"},"data":[0,0,0,0,0,0,0,0,0,0,0,0,0,0,0,0,0,0,0,0,0,0,0,0,0,0,0,0,0,0,0,0,0,0,0,0,0,0,0,0,0,0,0,0,0,0,0,0,0,0,0,0,0,0,0,0,0,0,0.1366,0.1367,0,0.1425,0.1426,0.1427,0.1472,0.1472,0.1473,0.1473,0.1537,0.1539,0.154,0,0,0,0,0,0,0,0,0,0,0,0,0,0.1279,0.128,0.1366,0.1367,0.1368,0.1425,0.1426,0.1427,0.1472,0.1472,0.1473,0.1474,0.1537,0.1538,0.154,0,0,0,0,0,0,0,0,0,0,0,0,0,0.1324,0.1281,0.1366,0.1399,0.1402,0.1425,0.1426,0.1427,0.1471,0.1472,0.1473,0.1474,0.1537,0.1538,0.154,0.1533,0,0,0.1545,0.1546,0,0,0,0,0,0,0,0,0.1321,0.1326,0.1393,0.1396,0.1401,0.1444,0.1419,0.1463,0.1471,0.1443,0.1473,0.1474,0.1507,0.1511,0.1518,0.1536,0.1539,0.1545,0.1546,0.1547,0.1548,0,0,0,0,0,0,0,0.1318,0.1324,0.1388,0.1394,0.1398,0.1406,0.1413,0.1427,0.1468,0.1446,0.1449,0.1459,0.1509,0.1516,0.152,0.154,0.1545,0.1547,0.1548,0.1549,0.1646,0.1647,0,0,0,0,0,0,0.1314,0.1321,0.1386,0.139,0.1364,0.1407,0.1415,0.1427,0.1468,0.1475,0.1458,0.1461,0.1512,0.1517,0.1522,0.1586,0.1547,0.1549,0.155,0.1644,0.1646,0.1648,0,0,0,0,0,0,0.1312,0.132,0.1383,0.1358,0.1367,0.1408,0.1421,0.1428,0.1467,0.1478,0.1485,0.1494,0.1513,0.152,0.1565,0.1587,0.155,0.1551,0.1642,0.1645,0.1647,0.167,0,0,0,0,0,0,0.1309,0.1318,0.1339,0.1358,0.1368,0.1416,0.1421,0.1429,0.1471,0.1476,0.151,0.1515,0.1515,0.1563,0.1567,0.1588,0.1552,0.164,0.1643,0.1646,0.1667,0.1673,0.1678,0,0,0,0,0,0.1306,0.1325,0.134,0.1349,0.1391,0.1417,0.1424,0.1454,0.1472,0.1492,0.1521,0.1516,0.1584,0.1565,0.157,0.1592,0.1639,0.1642,0.1646,0.1665,0.1672,0.1678,0,0,0,0,0,0,0.1299,0.1333,0.1349,0.1379,0.1407,0.1426,0.1454,0.1472,0.151,0.1526,0.1534,0.1541,0.159,0.1592,0.1571,0.1631,0.1611,0.1616,0.1624,0.1631,0.1636,0.1651,0.1554,0,0,0,0,0,0.1307,0.1334,0.1361,0.139,0.1407,0.1437,0.1457,0.1478,0.1507,0.1527,0.1551,0.1578,0.1601,0.1619,0.164,0.167,0.168,0.169,0.1695,0.1699,0.1717,0.174,0.1748,0.1659,0.1659,0.1659,0,0,0.1311,0.1335,0.1351,0.1391,0.1417,0.1438,0.1452,0.1493,0.1516,0.1526,0.1578,0.1601,0.1616,0.1652,0.1674,0.166,0.1732,0.1704,0.1707,0.1723,0.1744,0.1753,0.176,0.1661,0.1661,0.1661,0,0,0.1319,0.1359,0.1378,0.1404,0.145,0.1465,0.1484,0.1523,0.1552,0.1596,0.1612,0.1654,0.1688,0.1703,0.1713,0.1761,0.176,0.1771,0.1805,0.1826,0.1834,0.184,0.1866,0.1874,0.1769,0.1769,0.1769,0,0.1326,0.1351,0.1388,0.1411,0.1435,0.1479,0.1499,0.153,0.1581,0.161,0.162,0.1695,0.171,0.1749,0.1773,0.1772,0.1789,0.1774,0.1832,0.1838,0.1845,0.1869,0.1878,0.1771,0.1771,0.1771,0.177,0,0.1335,0.1367,0.1384,0.1424,0.1455,0.1486,0.1526,0.1567,0.1609,0.1642,0.1712,0.174,0.1788,0.1794,0.1802,0.1857,0.1856,0.1835,0.1811,0.1855,0.1878,0.1887,0.1773,0.1773,0.1772,0.1772,0,0,0.1316,0.1376,0.1385,0.1405,0.1467,0.1487,0.1536,0.1587,0.1624,0.169,0.174,0.1798,0.1841,0.1857,0.1873,0.1896,0.1955,0.1895,0.1896,0.1913,0.2015,0.1919,0.1919,0.1943,0.1945,0.1946,0.2014,0,0.1313,0.1347,0.1383,0.142,0.144,0.1495,0.1538,0.1597,0.1647,0.1709,0.177,0.1832,0.1855,0.1889,0.1922,0.1963,0.1981,0.194,0.1979,0.1981,0.1882,0.1927,0.1952,0.2021,0.2023,0.2024,0.2025,0,0.1301,0.133,0.1361,0.142,0.1437,0.1472,0.1543,0.1589,0.1684,0.1733,0.1813,0.1863,0.1959,0.1942,0.2045,0.2024,0.2031,0.2039,0.2041,0.1952,0.1901,0.1969,0.2042,0.204,0.2039,0.2038,0.2037,0,0.1251,0.1309,0.1333,0.1355,0.143,0.1466,0.1521,0.1608,0.1658,0.1765,0.1822,0.192,0.1993,0.2036,0.21,0.2082,0.2178,0.2142,0.2051,0.2045,0.21,0.2092,0.2172,0.2172,0.2172,0.2172,0.2172,0,0.1215,0.1238,0.132,0.1332,0.1383,0.1455,0.1517,0.1581,0.1682,0.1744,0.1855,0.1905,0.2022,0.2091,0.2119,0.2138,0.2202,0.2076,0.2059,0.2109,0.2101,0.2106,0.2097,0.2174,0.2174,0.2173,0.2173,0,0.115,0.12,0.1231,0.132,0.1357,0.14,0.152,0.1557,0.168,0.1759,0.1807,0.1935,0.2041,0.2127,0.2195,0.2158,0.2175,0.2142,0.2216,0.2199,0.2022,0.2014,0.2061,0.2058,0.2056,0.2054,0.2052,0,0.1112,0.1124,0.1215,0.124,0.1286,0.1368,0.142,0.1545,0.1583,0.1753,0.1776,0.1919,0.1995,0.2044,0.2125,0.218,0.2141,0.213,0.2057,0.2033,0.2013,0.2008,0.2004,0.2049,0.2048,0.2047,0.2047,0,0.1042,0.1086,0.1118,0.1178,0.1231,0.1282,0.1369,0.1397,0.1535,0.1651,0.1721,0.1789,0.1894,0.1971,0.2031,0.205,0.2139,0.2105,0.2109,0.204,0.2019,0.1999,0.1998,0.2038,0.204,0.204,0.2041,0,0.0996,0.1002,0.1056,0.1103,0.1158,0.1188,0.1247,0.1311,0.1381,0.1566,0.1571,0.1739,0.1854,0.1902,0.1952,0.1988,0.1956,0.1882,0.1896,0.1907,0.1828,0.1776,0.1719,0,0,0,0,0,0.0943,0.0946,0.0978,0.1019,0.107,0.1115,0.1202,0.1263,0.1395,0.1407,0.1494,0.1584,0.1687,0.176,0.1773,0.189,0.1964,0.1894,0.1884,0.1993,0.2003,0.1925,0,0,0,0,0,0,0.09,0.0927,0.0948,0.0945,0.0965,0.1017,0.1075,0.1167,0.1183,0.1323,0.1389,0.1493,0.1618,0.1678,0.1745,0.1771,0.1734,0.1992,0.1988,0.1988,0.1996,0.2004,0.1928,0,0,0,0,0]},{"header":{"parameterUnit":"m.s-1","parameterCategory":2,"la1":30.2991,"la2":30.254,"lo1":-89.0895,"lo2":-89.0444,"dy":0.0017,"dx":0.0017,"nx":28,"ny":28,"refTime":"2024-11-30T09:00:00:Z","depth":"4","parameterNumber":3,"parameterNumberName":"V-component_of_CURRENTS"},"data":[0,0,0,0,0,0,0,0,0,0,0,0,0,0,0,0,0,0,0,0,0,0,0,0,0,0,0,0,0,0,0,0,0,0,0,0,0,0,0,0,0,0,0,0,0,0,0,0,0,0,0,0,0,0,0,0,0,0,0.0084,0.0084,0,0.0047,0.0046,0.0046,0.0023,0.0023,0.0023,0.0023,-0.0044,-0.0046,-0.0048,0,0,0,0,0,0,0,0,0,0,0,0,0,0.0102,0.0102,0.0084,0.0083,0.0083,0.0047,0.0046,0.0046,0.0023,0.0023,0.0023,0.0023,-0.0044,-0.0046,-0.0048,0,0,0,0,0,0,0,0,0,0,0,0,0,0.0082,0.0102,0.0084,0.0068,0.0066,0.0047,0.0046,0.0046,0.0023,0.0023,0.0023,0.0023,-0.0043,-0.0045,-0.0048,-0.0062,0,0,-0.0056,-0.0057,0,0,0,0,0,0,0,0,0.0084,0.0082,0.0071,0.0069,0.0067,0.004,0.0028,0.0009,0.0023,0.0039,0.0023,0.0023,-0.0019,-0.0023,-0.003,-0.0065,-0.0068,-0.0056,-0.0058,-0.0059,-0.006,0,0,0,0,0,0,0,0.0085,0.0083,0.0069,0.007,0.0068,0.0051,0.0048,0.0024,0.0011,0.0038,0.0036,0.0033,-0.002,-0.0027,-0.0032,-0.0069,-0.0056,-0.0058,-0.006,-0.0061,-0.0122,-0.0122,0,0,0,0,0,0,0.0092,0.0084,0.007,0.0068,0.0075,0.0051,0.0048,0.0048,0.0011,0.0006,0.0033,0.0032,-0.0023,-0.0029,-0.0034,-0.0032,-0.0059,-0.0061,-0.0063,-0.0122,-0.0122,-0.0122,0,0,0,0,0,0,0.0093,0.0091,0.0072,0.0075,0.0072,0.0051,0.0052,0.0048,0.0039,0.0008,0.0002,0.0028,-0.0023,-0.0031,-0.0054,-0.0036,-0.0062,-0.0065,-0.0122,-0.0122,-0.0122,-0.0041,0,0,0,0,0,0,0.0094,0.0092,0.0094,0.0076,0.0072,0.0063,0.0052,0.0047,0.0037,0.0036,0.0002,-0.0004,-0.0024,-0.005,-0.0057,-0.004,-0.0067,-0.0122,-0.0122,-0.0122,-0.0044,-0.0039,-0.0034,0,0,0,0,0,0.0094,0.0099,0.0095,0.0093,0.0076,0.0063,0.006,0.0044,0.0038,0.0036,0.0013,-0.0003,-0.0056,-0.0053,-0.006,-0.0043,-0.0122,-0.0122,-0.0122,-0.0046,-0.004,-0.0034,0,0,0,0,0,0,0.0106,0.0096,0.0091,0.0092,0.008,0.006,0.0057,0.0045,0.0026,0.0024,-0.0006,-0.0013,-0.0028,-0.0054,-0.0049,-0.0065,-0.0091,-0.0093,-0.0031,-0.0025,-0.0021,0.0017,-0.0069,0,0,0,0,0,0.0111,0.0113,0.0098,0.0099,0.0095,0.0076,0.0069,0.0059,0.004,0.0031,0.0008,-0.0017,-0.0035,-0.0044,-0.0071,-0.0078,-0.0095,-0.0075,-0.007,-0.0065,-0.0042,-0.0044,-0.0036,-0.0123,-0.0123,-0.0123,0,0,0.0115,0.011,0.0111,0.0101,0.0091,0.0099,0.0072,0.0064,0.0074,0.0026,0.0028,-0.0005,-0.0037,-0.0043,-0.0052,-0.006,-0.0057,-0.0065,-0.0061,-0.004,-0.0043,-0.0034,-0.0026,-0.0123,-0.0123,-0.0123,0,0,0.0132,0.0122,0.0133,0.0129,0.0119,0.011,0.011,0.0091,0.0086,0.0077,0.005,0.0035,-0.0004,-0.0008,-0.0018,-0.0004,-0.0036,-0.0024,0.004,0.0038,0.0046,0.0053,0.0017,0.0021,-0.0015,-0.0015,-0.0015,0,0.0138,0.0156,0.0132,0.0146,0.0155,0.0121,0.0143,0.0132,0.0108,0.0118,0.0085,0.0058,0.0022,0.0043,0.0044,0.0012,-0.0009,0.0026,0.0048,0.0055,0.0061,0.0023,0.0025,-0.0011,-0.0012,-0.0012,-0.0012,0,0.0169,0.0185,0.0191,0.0205,0.0206,0.0216,0.0205,0.0206,0.019,0.0184,0.0186,0.014,0.0134,0.0111,0.0081,0.0109,0.0071,0.0053,0.0043,0.0075,0.0031,0.0033,-0.0006,-0.0007,-0.0008,-0.0009,0,0,0.0184,0.0211,0.0215,0.0245,0.0244,0.0254,0.0272,0.0291,0.0324,0.0285,0.0323,0.0281,0.0259,0.0246,0.0206,0.02,0.0202,0.0149,0.0147,0.0131,0.0174,0.011,0.0105,0.019,0.0191,0.0192,0.0118,0,0.0222,0.0273,0.0273,0.0329,0.036,0.035,0.0377,0.0386,0.0384,0.0405,0.0369,0.0372,0.031,0.0306,0.0295,0.0228,0.0213,0.0222,0.0131,0.0128,0.0083,0.0108,0.0196,0.0119,0.0119,0.0119,0.0119,0,0.0259,0.0294,0.0356,0.0417,0.0429,0.0454,0.0511,0.0532,0.0548,0.0545,0.0549,0.0507,0.0493,0.0427,0.0357,0.0365,0.0283,0.0222,0.0217,0.014,0.0069,0.0083,0.0121,0.0121,0.0121,0.0121,0.0121,0,0.0297,0.0357,0.0417,0.0434,0.0485,0.052,0.0549,0.0579,0.0613,0.0639,0.0651,0.0629,0.0603,0.053,0.0387,0.0378,0.0292,0.0262,0.0128,0.012,0.0165,0.0158,0.0221,0.0221,0.0221,0.0221,0.0221,0,0.0343,0.0393,0.0444,0.0478,0.0559,0.0576,0.0661,0.0683,0.0722,0.0761,0.0728,0.0731,0.0627,0.055,0.0432,0.028,0.0325,0.015,0.0111,0.0193,0.0191,0.0164,0.0158,0.0218,0.0219,0.0219,0.022,0,0.0373,0.0405,0.0479,0.0549,0.0578,0.0635,0.072,0.0775,0.0803,0.0851,0.0854,0.0808,0.0698,0.0572,0.043,0.0323,0.0193,0.0123,0.0206,0.017,0.0009,0.0008,-0.0016,-0.0018,-0.002,-0.0022,-0.0024,0,0.0395,0.0435,0.0526,0.0571,0.0605,0.0693,0.075,0.0809,0.0853,0.0882,0.089,0.0811,0.075,0.0516,0.0381,0.0165,0.0118,0.0052,0.005,0.0028,-0.0008,-0.0006,-0.0004,-0.0027,-0.0028,-0.0028,-0.0029,0,0.0432,0.0458,0.0514,0.0602,0.0672,0.0758,0.0833,0.0869,0.092,0.095,0.0905,0.079,0.0658,0.0486,0.0312,0.0157,0.0108,0.0029,0.0032,0.0029,0.0014,-0.002,-0.0015,-0.0036,-0.0035,-0.0035,-0.0034,0,0.0449,0.0486,0.0547,0.0623,0.0708,0.0776,0.0832,0.0866,0.091,0.0923,0.0903,0.0779,0.0717,0.0479,0.0326,0.0165,0.0115,0.0064,0.0064,0.0071,0.0112,0.0106,0.0065,0,0,0,0,0,0.046,0.0491,0.0562,0.0638,0.0718,0.0765,0.0858,0.0902,0.0948,0.091,0.0905,0.0775,0.0545,0.0464,0.0288,0.0271,0.0085,0.0058,0.0025,-0.0078,-0.0069,-0.0041,0,0,0,0,0,0,0.0463,0.0522,0.0552,0.0625,0.0672,0.0762,0.0821,0.086,0.0839,0.086,0.0744,0.0706,0.0489,0.063,0.0272,0.0229,0.0178,-0.0036,-0.0041,-0.0083,-0.0075,-0.0068,-0.0036,0,0,0,0,0]}]]